Location: Long Geng
(2.6167°N, 114.1333°E)
Time: 08:57:09
(UTC+00:00)

Ariane 44LP R/B - Pass Details

Date: 26 September 2021
Orbit: 478 x 17832 km, 3.6° (Epoch: 15 October)

Event Time Altitude Azimuth Distance (km) Brightness Sun altitude
Rises 09:48:45 0° 269° (W) 21,368 14.2 6.4°
Reaches altitude 10° 10:45:15 10° 267° (W) 22,259 13.2 -7.7°
Maximum altitude 12:59:55 74° 184° (S) 3,489 7.0 -41.3°
Enters shadow 13:02:20 67° 138° (SE) 3,080 6.6 -41.9°
